Time,TemperatureF,DewpointF,PressureIn,WindDirection,WindDirectionDegrees,WindSpeedMPH,WindSpeedGustMPH,Humidity,HourlyPrecipIn,Conditions,Clouds,dailyrainin,SoftwareType,DateUTC
2013-11-13 00:01:00,66.0,41.0,30.11,NNW,338,3.0,4.0,40,0.00,,SKC,0.00,VWS V14.01,2013-11-13 07:01:00,
2013-11-13 00:06:00,66.0,41.0,30.12,NW,315,0.0,0.0,40,0.00,,SKC,0.00,VWS V14.01,2013-11-13 07:06:00,
2013-11-13 00:11:00,66.0,41.7,30.12,NNE,22,2.0,3.0,41,0.00,,SKC,0.00,VWS V14.01,2013-11-13 07:11:00,
2013-11-13 00:16:00,66.0,41.7,30.12,NW,315,3.0,3.0,41,0.00,,SKC,0.00,VWS V14.01,2013-11-13 07:16:00,
2013-11-13 00:21:00,66.0,42.3,30.12,SE,135,3.0,3.0,42,0.00,,SKC,0.00,VWS V14.01,2013-11-13 07:21:00,
2013-11-13 00:26:00,65.0,41.4,30.12,ENE,68,3.0,3.0,42,0.00,,SKC,0.00,VWS V14.01,2013-11-13 07:26:00,
2013-11-13 00:31:00,66.0,42.3,30.12,NNW,338,3.0,3.0,42,0.00,,SKC,0.00,VWS V14.01,2013-11-13 07:31:00,
2013-11-13 00:36:00,67.0,41.9,30.11,NNW,338,5.0,5.0,40,0.00,,SKC,0.00,VWS V14.01,2013-11-13 07:36:00,
2013-11-13 00:41:00,67.0,41.9,30.12,NNW,338,5.0,5.0,40,0.00,,SKC,0.00,VWS V14.01,2013-11-13 07:41:00,
2013-11-13 00:46:00,67.0,41.9,30.12,NNW,338,2.0,3.0,40,0.00,,SKC,0.00,VWS V14.01,2013-11-13 07:46:00,
2013-11-13 00:51:00,67.0,41.9,30.11,NW,315,3.0,3.0,40,0.00,,SKC,0.00,VWS V14.01,2013-11-13 07:51:00,
2013-11-13 00:56:00,67.0,41.9,30.12,NNW,338,1.0,1.0,40,0.00,,SKC,0.00,VWS V14.01,2013-11-13 07:56:00,
2013-11-13 01:01:00,67.0,41.9,30.12,NNW,338,2.0,2.0,40,0.00,,SKC,0.00,VWS V14.01,2013-11-13 08:01:00,
2013-11-13 01:06:00,66.0,41.7,30.11,NE,45,3.0,3.0,41,0.00,,SKC,0.00,VWS V14.01,2013-11-13 08:06:00,
2013-11-13 01:11:00,65.0,41.4,30.11,NNE,22,5.0,5.0,42,0.00,,SKC,0.00,VWS V14.01,2013-11-13 08:11:00,
2013-11-13 01:16:00,66.0,41.7,30.11,NE,45,2.0,3.0,41,0.00,,SKC,0.00,VWS V14.01,2013-11-13 08:16:00,
2013-11-13 01:21:00,66.0,41.7,30.11,NE,45,1.0,1.0,41,0.00,,SKC,0.00,VWS V14.01,2013-11-13 08:21:00,
2013-11-13 01:26:00,66.0,41.7,30.11,North,0,1.0,1.0,41,0.00,,SKC,0.00,VWS V14.01,2013-11-13 08:26:00,
2013-11-13 01:31:00,65.0,40.8,30.11,NE,45,1.0,2.0,41,0.00,,SKC,0.00,VWS V14.01,2013-11-13 08:31:00,
2013-11-13 01:36:00,66.0,41.7,30.11,NE,45,1.0,1.0,41,0.00,,SKC,0.00,VWS V14.01,2013-11-13 08:36:00,
2013-11-13 01:41:00,66.0,41.7,30.11,ENE,68,2.0,2.0,41,0.00,,SKC,0.00,VWS V14.01,2013-11-13 08:41:00,
2013-11-13 01:46:00,66.0,41.7,30.10,NE,45,2.0,2.0,41,0.00,,SKC,0.00,VWS V14.01,2013-11-13 08:46:00,
2013-11-13 01:51:00,65.0,40.8,30.11,NNE,22,1.0,2.0,41,0.00,,SKC,0.00,VWS V14.01,2013-11-13 08:51:00,
2013-11-13 01:56:00,65.0,41.4,30.10,NNE,22,1.0,2.0,42,0.00,,SKC,0.00,VWS V14.01,2013-11-13 08:56:00,
2013-11-13 02:01:00,65.0,41.4,30.10,NNE,22,2.0,2.0,42,0.00,,SKC,0.00,VWS V14.01,2013-11-13 09:01:00,
2013-11-13 02:06:00,65.0,41.4,30.10,NE,45,1.0,2.0,42,0.00,,SKC,0.00,VWS V14.01,2013-11-13 09:06:00,
2013-11-13 02:11:00,65.0,42.0,30.11,NE,45,0.0,0.0,43,0.00,,SKC,0.00,VWS V14.01,2013-11-13 09:11:00,
2013-11-13 02:16:00,64.0,41.1,30.10,NE,45,2.0,2.0,43,0.00,,SKC,0.00,VWS V14.01,2013-11-13 09:16:00,
2013-11-13 02:21:00,64.0,41.7,30.10,NE,45,2.0,2.0,44,0.00,,SKC,0.00,VWS V14.01,2013-11-13 09:21:00,
2013-11-13 02:26:00,63.0,40.8,30.10,NNE,22,1.0,2.0,44,0.00,,SKC,0.00,VWS V14.01,2013-11-13 09:26:00,
2013-11-13 02:31:00,63.0,41.3,30.10,NE,45,1.0,2.0,45,0.00,,SKC,0.00,VWS V14.01,2013-11-13 09:31:00,
2013-11-13 02:36:00,63.0,41.3,30.10,North,0,4.0,4.0,45,0.00,,SKC,0.00,VWS V14.01,2013-11-13 09:36:00,
2013-11-13 02:41:00,62.0,40.4,30.10,ESE,112,5.0,5.0,45,0.00,,SKC,0.00,VWS V14.01,2013-11-13 09:41:00,
2013-11-13 02:46:00,62.0,41.0,30.10,East,90,0.0,0.0,46,0.00,,SKC,0.00,VWS V14.01,2013-11-13 09:46:00,
2013-11-13 02:51:00,62.0,41.6,30.10,East,90,4.0,5.0,47,0.00,,SKC,0.00,VWS V14.01,2013-11-13 09:51:00,
2013-11-13 02:56:00,61.0,40.7,30.10,NNE,22,3.0,4.0,47,0.00,,SKC,0.00,VWS V14.01,2013-11-13 09:56:00,
2013-11-13 03:01:00,61.0,40.7,30.10,NNE,22,2.0,3.0,47,0.00,,SKC,0.00,VWS V14.01,2013-11-13 10:01:00,
2013-11-13 03:06:00,62.0,41.6,30.10,NNW,338,1.0,2.0,47,0.00,,SKC,0.00,VWS V14.01,2013-11-13 10:06:00,
2013-11-13 03:11:00,62.0,41.0,30.09,NNW,338,3.0,4.0,46,0.00,,SKC,0.00,VWS V14.01,2013-11-13 10:11:00,
2013-11-13 03:16:00,62.0,41.0,30.10,NNW,338,1.0,1.0,46,0.00,,SKC,0.00,VWS V14.01,2013-11-13 10:16:00,
2013-11-13 03:21:00,62.0,41.0,30.10,SSE,158,2.0,3.0,46,0.00,,SKC,0.00,VWS V14.01,2013-11-13 10:21:00,
2013-11-13 03:26:00,61.0,41.2,30.10,ENE,68,1.0,1.0,48,0.00,,SKC,0.00,VWS V14.01,2013-11-13 10:26:00,
2013-11-13 03:31:00,61.0,41.2,30.10,East,90,1.0,1.0,48,0.00,,SKC,0.00,VWS V14.01,2013-11-13 10:31:00,
2013-11-13 03:36:00,61.0,41.2,30.09,East,90,1.0,1.0,48,0.00,,SKC,0.00,VWS V14.01,2013-11-13 10:36:00,
2013-11-13 03:41:00,61.0,41.2,30.09,NNE,22,1.0,1.0,48,0.00,,SKC,0.00,VWS V14.01,2013-11-13 10:41:00,
2013-11-13 03:46:00,61.0,41.7,30.09,NNE,22,1.0,1.0,49,0.00,,SKC,0.00,VWS V14.01,2013-11-13 10:46:00,
2013-11-13 03:51:00,60.0,40.8,30.09,NNE,22,2.0,2.0,49,0.00,,SKC,0.00,VWS V14.01,2013-11-13 10:51:00,
2013-11-13 03:56:00,60.0,40.8,30.09,NNE,22,2.0,2.0,49,0.00,,SKC,0.00,VWS V14.01,2013-11-13 10:56:00,
2013-11-13 04:01:00,60.0,41.3,30.09,NNW,338,2.0,3.0,50,0.00,,SKC,0.00,VWS V14.01,2013-11-13 11:01:00,
2013-11-13 04:06:00,60.0,41.3,30.09,NNW,338,2.0,3.0,50,0.00,,SKC,0.00,VWS V14.01,2013-11-13 11:06:00,
2013-11-13 04:11:00,60.0,41.3,30.09,NW,315,3.0,4.0,50,0.00,,SKC,0.00,VWS V14.01,2013-11-13 11:11:00,
2013-11-13 04:16:00,60.0,41.3,30.09,NNW,338,5.0,5.0,50,0.00,,SKC,0.00,VWS V14.01,2013-11-13 11:16:00,
2013-11-13 04:21:00,61.0,41.7,30.09,NW,315,2.0,2.0,49,0.00,,SKC,0.00,VWS V14.01,2013-11-13 11:21:00,
2013-11-13 04:26:00,60.0,40.8,30.09,NW,315,3.0,3.0,49,0.00,,SKC,0.00,VWS V14.01,2013-11-13 11:26:00,
2013-11-13 04:31:00,60.0,41.3,30.09,ENE,68,3.0,3.0,50,0.00,,SKC,0.00,VWS V14.01,2013-11-13 11:31:00,
2013-11-13 04:36:00,60.0,41.3,30.09,ENE,68,1.0,1.0,50,0.00,,SKC,0.00,VWS V14.01,2013-11-13 11:36:00,
2013-11-13 04:41:00,60.0,41.3,30.09,ENE,68,1.0,1.0,50,0.00,,SKC,0.00,VWS V14.01,2013-11-13 11:41:00,
2013-11-13 04:46:00,60.0,41.3,30.09,ENE,68,1.0,1.0,50,0.00,,SKC,0.00,VWS V14.01,2013-11-13 11:46:00,
2013-11-13 04:51:00,60.0,41.3,30.09,ENE,68,2.0,3.0,50,0.00,,SKC,0.00,VWS V14.01,2013-11-13 11:51:00,
2013-11-13 04:56:00,60.0,41.3,30.09,NE,45,1.0,1.0,50,0.00,,SKC,0.00,VWS V14.01,2013-11-13 11:56:00,
2013-11-13 05:01:00,61.0,42.2,30.09,NE,45,1.0,1.0,50,0.00,,SKC,0.00,VWS V14.01,2013-11-13 12:01:00,
2013-11-13 05:06:00,61.0,42.2,30.09,NE,45,3.0,3.0,50,0.00,,SKC,0.00,VWS V14.01,2013-11-13 12:06:00,
2013-11-13 05:11:00,61.0,41.7,30.08,NE,45,2.0,3.0,49,0.00,,SKC,0.00,VWS V14.01,2013-11-13 12:11:00,
2013-11-13 05:16:00,61.0,41.7,30.08,NE,45,2.0,3.0,49,0.00,,SKC,0.00,VWS V14.01,2013-11-13 12:16:00,
2013-11-13 05:21:00,62.0,42.1,30.08,NNE,22,2.0,3.0,48,0.00,,SKC,0.00,VWS V14.01,2013-11-13 12:21:00,
2013-11-13 05:26:00,62.0,42.1,30.08,NNE,22,2.0,3.0,48,0.00,,SKC,0.00,VWS V14.01,2013-11-13 12:26:00,
2013-11-13 05:31:00,62.0,42.1,30.08,NE,45,1.0,1.0,48,0.00,,SKC,0.00,VWS V14.01,2013-11-13 12:31:00,
2013-11-13 05:36:00,62.0,42.6,30.08,NE,45,2.0,3.0,49,0.00,,SKC,0.00,VWS V14.01,2013-11-13 12:36:00,
2013-11-13 05:41:00,62.0,42.6,30.08,NNE,22,3.0,3.0,49,0.00,,SKC,0.00,VWS V14.01,2013-11-13 12:41:00,
2013-11-13 05:46:00,62.0,42.1,30.08,NE,45,1.0,1.0,48,0.00,,SKC,0.00,VWS V14.01,2013-11-13 12:46:00,
2013-11-13 05:51:00,62.0,42.1,30.08,NE,45,1.0,2.0,48,0.00,,SKC,0.00,VWS V14.01,2013-11-13 12:51:00,
2013-11-13 05:56:00,62.0,42.1,30.08,NNE,22,3.0,3.0,48,0.00,,SKC,0.00,VWS V14.01,2013-11-13 12:56:00,
2013-11-13 06:01:00,62.0,42.1,30.08,NE,45,1.0,3.0,48,0.00,,SKC,0.00,VWS V14.01,2013-11-13 13:01:00,
2013-11-13 06:06:00,62.0,42.1,30.08,NE,45,1.0,1.0,48,0.00,,SKC,0.00,VWS V14.01,2013-11-13 13:06:00,
2013-11-13 06:11:00,62.0,42.6,30.08,NE,45,1.0,2.0,49,0.00,,SKC,0.00,VWS V14.01,2013-11-13 13:11:00,
2013-11-13 06:16:00,62.0,42.1,30.08,NNW,338,1.0,2.0,48,0.00,,SKC,0.00,VWS V14.01,2013-11-13 13:16:00,
2013-11-13 06:21:00,62.0,42.6,30.08,NNE,22,2.0,3.0,49,0.00,,SKC,0.00,VWS V14.01,2013-11-13 13:21:00,
2013-11-13 06:26:00,63.0,43.6,30.08,NNE,22,2.0,2.0,49,0.00,,SKC,0.00,VWS V14.01,2013-11-13 13:26:00,
2013-11-13 06:31:00,62.0,42.6,30.08,NE,45,1.0,2.0,49,0.00,,SKC,0.00,VWS V14.01,2013-11-13 13:31:00,
2013-11-13 06:36:00,62.0,42.6,30.08,NE,45,2.0,2.0,49,0.00,,SKC,0.00,VWS V14.01,2013-11-13 13:36:00,
2013-11-13 06:41:00,62.0,43.2,30.08,NE,45,0.0,0.0,50,0.00,,SKC,0.00,VWS V14.01,2013-11-13 13:41:00,
2013-11-13 06:46:00,61.0,42.2,30.09,NNE,22,3.0,4.0,50,0.00,,SKC,0.00,VWS V14.01,2013-11-13 13:46:00,
2013-11-13 06:51:00,62.0,43.2,30.09,NNE,22,4.0,4.0,50,0.00,,SKC,0.00,VWS V14.01,2013-11-13 13:51:00,
2013-11-13 06:56:00,62.0,43.2,30.08,NNE,22,1.0,2.0,50,0.00,,SKC,0.00,VWS V14.01,2013-11-13 13:56:00,
2013-11-13 07:01:00,61.0,42.8,30.09,ENE,68,1.0,1.0,51,0.00,,SKC,0.00,VWS V14.01,2013-11-13 14:01:00,
2013-11-13 07:06:00,60.0,42.3,30.09,NE,45,3.0,3.0,52,0.00,,SKC,0.00,VWS V14.01,2013-11-13 14:06:00,
2013-11-13 07:11:00,60.0,42.3,30.09,NNE,22,1.0,2.0,52,0.00,,SKC,0.00,VWS V14.01,2013-11-13 14:11:00,
2013-11-13 07:16:00,60.0,42.3,30.09,NNE,22,1.0,3.0,52,0.00,,SKC,0.00,VWS V14.01,2013-11-13 14:16:00,
2013-11-13 07:21:00,60.0,42.3,30.09,North,0,6.0,7.0,52,0.00,,SKC,0.00,VWS V14.01,2013-11-13 14:21:00,
2013-11-13 07:26:00,60.0,42.3,30.09,NNE,22,4.0,5.0,52,0.00,,SKC,0.00,VWS V14.01,2013-11-13 14:26:00,
2013-11-13 07:31:00,60.0,42.3,30.09,NNE,22,3.0,3.0,52,0.00,,SKC,0.00,VWS V14.01,2013-11-13 14:31:00,
2013-11-13 07:36:00,60.0,42.8,30.09,NNE,22,2.0,2.0,53,0.00,,SKC,0.00,VWS V14.01,2013-11-13 14:36:00,
2013-11-13 07:41:00,60.0,42.8,30.09,NE,45,3.0,3.0,53,0.00,,SKC,0.00,VWS V14.01,2013-11-13 14:41:00,
2013-11-13 07:46:00,61.0,43.8,30.10,NE,45,1.0,2.0,53,0.00,,SKC,0.00,VWS V14.01,2013-11-13 14:46:00,
2013-11-13 07:51:00,61.0,43.3,30.10,NE,45,3.0,3.0,52,0.00,,SKC,0.00,VWS V14.01,2013-11-13 14:51:00,
2013-11-13 07:56:00,61.0,43.3,30.10,North,0,1.0,1.0,52,0.00,,SKC,0.00,VWS V14.01,2013-11-13 14:56:00,
2013-11-13 08:01:00,61.0,43.3,30.10,NNE,22,1.0,1.0,52,0.00,,SKC,0.00,VWS V14.01,2013-11-13 15:01:00,
2013-11-13 08:06:00,61.0,43.8,30.10,NE,45,3.0,3.0,53,0.00,,SKC,0.00,VWS V14.01,2013-11-13 15:06:00,
2013-11-13 08:11:00,61.0,43.8,30.10,NNE,22,4.0,5.0,53,0.00,,SKC,0.00,VWS V14.01,2013-11-13 15:11:00,
2013-11-13 08:16:00,61.0,43.8,30.10,ENE,68,1.0,1.0,53,0.00,,SKC,0.00,VWS V14.01,2013-11-13 15:16:00,
2013-11-13 08:21:00,61.0,43.8,30.10,NE,45,2.0,3.0,53,0.00,,SKC,0.00,VWS V14.01,2013-11-13 15:21:00,
2013-11-13 08:26:00,61.0,43.8,30.10,NNE,22,1.0,2.0,53,0.00,,SKC,0.00,VWS V14.01,2013-11-13 15:26:00,
2013-11-13 08:31:00,62.0,44.2,30.10,NNE,22,1.0,1.0,52,0.00,,SKC,0.00,VWS V14.01,2013-11-13 15:31:00,
2013-11-13 08:36:00,63.0,45.1,30.10,SW,225,1.0,2.0,52,0.00,,SKC,0.00,VWS V14.01,2013-11-13 15:36:00,
2013-11-13 08:41:00,63.0,44.6,30.10,SW,225,1.0,1.0,51,0.00,,SKC,0.00,VWS V14.01,2013-11-13 15:41:00,
2013-11-13 08:46:00,64.0,44.5,30.10,ENE,68,2.0,2.0,49,0.00,,SKC,0.00,VWS V14.01,2013-11-13 15:46:00,
2013-11-13 08:51:00,66.0,45.2,30.10,ESE,112,1.0,2.0,47,0.00,,SKC,0.00,VWS V14.01,2013-11-13 15:51:00,
2013-11-13 08:56:00,67.0,45.0,30.10,ESE,112,3.0,3.0,45,0.00,,SKC,0.00,VWS V14.01,2013-11-13 15:56:00,
2013-11-13 09:01:00,68.0,44.7,30.10,ESE,112,1.0,1.0,43,0.00,,SKC,0.00,VWS V14.01,2013-11-13 16:01:00,
2013-11-13 09:06:00,69.0,45.0,30.10,East,90,3.0,3.0,42,0.00,,SKC,0.00,VWS V14.01,2013-11-13 16:06:00,
2013-11-13 09:11:00,70.0,45.2,30.10,East,90,4.0,5.0,41,0.00,,SKC,0.00,VWS V14.01,2013-11-13 16:11:00,
2013-11-13 09:16:00,70.0,45.2,30.10,East,90,3.0,3.0,41,0.00,,SKC,0.00,VWS V14.01,2013-11-13 16:16:00,
2013-11-13 09:21:00,70.0,44.6,30.10,East,90,5.0,6.0,40,0.00,,SKC,0.00,VWS V14.01,2013-11-13 16:21:00,
2013-11-13 09:27:00,70.0,44.6,30.10,East,90,4.0,4.0,40,0.00,,SKC,0.00,VWS V14.01,2013-11-13 16:27:00,
2013-11-13 09:32:00,71.0,44.8,30.10,ENE,68,3.0,3.0,39,0.00,,SKC,0.00,VWS V14.01,2013-11-13 16:32:00,
2013-11-13 09:37:00,71.0,44.8,30.10,ENE,68,3.0,5.0,39,0.00,,SKC,0.00,VWS V14.01,2013-11-13 16:37:00,
2013-11-13 09:42:00,72.0,45.0,30.10,ENE,68,3.0,3.0,38,0.00,,SKC,0.00,VWS V14.01,2013-11-13 16:42:00,
2013-11-13 09:47:00,72.0,44.3,30.10,ESE,112,3.0,5.0,37,0.00,,SKC,0.00,VWS V14.01,2013-11-13 16:47:00,
2013-11-13 09:52:00,73.0,45.2,30.10,ESE,112,1.0,2.0,37,0.00,,SKC,0.00,VWS V14.01,2013-11-13 16:52:00,
2013-11-13 09:57:00,73.0,44.5,30.10,ESE,112,1.0,1.0,36,0.00,,SKC,0.00,VWS V14.01,2013-11-13 16:57:00,
2013-11-13 10:02:00,74.0,44.6,30.10,NNE,22,2.0,3.0,35,0.00,,SKC,0.00,VWS V14.01,2013-11-13 17:02:00,
2013-11-13 10:07:00,74.0,44.6,30.10,NE,45,2.0,2.0,35,0.00,,SKC,0.00,VWS V14.01,2013-11-13 17:07:00,
2013-11-13 10:12:00,75.0,45.5,30.10,SSE,158,1.0,2.0,35,0.00,,SKC,0.00,VWS V14.01,2013-11-13 17:12:00,
2013-11-13 10:17:00,74.0,44.6,30.10,NNW,338,2.0,2.0,35,0.00,,SKC,0.00,VWS V14.01,2013-11-13 17:17:00,
2013-11-13 10:22:00,76.0,44.8,30.10,South,180,1.0,2.0,33,0.00,,SKC,0.00,VWS V14.01,2013-11-13 17:22:00,
2013-11-13 10:27:00,76.0,45.6,30.10,WSW,248,1.0,1.0,34,0.00,,SKC,0.00,VWS V14.01,2013-11-13 17:27:00,
2013-11-13 10:32:00,77.0,44.9,30.10,ESE,112,5.0,5.0,32,0.00,,SKC,0.00,VWS V14.01,2013-11-13 17:32:00,
2013-11-13 10:37:00,77.0,44.9,30.10,SW,225,3.0,3.0,32,0.00,,SKC,0.00,VWS V14.01,2013-11-13 17:37:00,
2013-11-13 10:43:00,76.0,45.6,30.09,ESE,112,6.0,8.0,34,0.00,,SKC,0.00,VWS V14.01,2013-11-13 17:43:00,
2013-11-13 10:48:00,76.0,44.8,30.09,SE,135,3.0,5.0,33,0.00,,SKC,0.00,VWS V14.01,2013-11-13 17:48:00,
2013-11-13 10:53:00,76.0,44.8,30.09,SE,135,4.0,6.0,33,0.00,,SKC,0.00,VWS V14.01,2013-11-13 17:53:00,
2013-11-13 10:58:00,77.0,45.7,30.09,South,180,7.0,8.0,33,0.00,,SKC,0.00,VWS V14.01,2013-11-13 17:58:00,
2013-11-13 11:03:00,77.0,44.9,30.08,South,180,10.0,12.0,32,0.00,,SKC,0.00,VWS V14.01,2013-11-13 18:03:00,
2013-11-13 11:08:00,77.0,45.7,30.08,South,180,7.0,9.0,33,0.00,,SKC,0.00,VWS V14.01,2013-11-13 18:08:00,
2013-11-13 11:13:00,77.0,45.7,30.08,NE,45,3.0,5.0,33,0.00,,SKC,0.00,VWS V14.01,2013-11-13 18:13:00,
2013-11-13 11:18:00,76.0,44.8,30.08,SW,225,12.0,12.0,33,0.00,,SKC,0.00,VWS V14.01,2013-11-13 18:18:00,
2013-11-13 11:23:00,76.0,44.8,30.07,SSW,202,9.0,9.0,33,0.00,,SKC,0.00,VWS V14.01,2013-11-13 18:23:00,
2013-11-13 11:28:00,76.0,44.8,30.08,ESE,112,5.0,8.0,33,0.00,,SKC,0.00,VWS V14.01,2013-11-13 18:28:00,
2013-11-13 11:33:00,76.0,44.8,30.07,WSW,248,7.0,8.0,33,0.00,,SKC,0.00,VWS V14.01,2013-11-13 18:33:00,
2013-11-13 11:38:00,76.0,44.8,30.07,SSE,158,12.0,12.0,33,0.00,,SKC,0.00,VWS V14.01,2013-11-13 18:38:00,
2013-11-13 11:43:00,76.0,44.8,30.07,South,180,14.0,15.0,33,0.00,,SKC,0.00,VWS V14.01,2013-11-13 18:43:00,
2013-11-13 11:48:00,77.0,44.9,30.06,SSE,158,14.0,14.0,32,0.00,,SKC,0.00,VWS V14.01,2013-11-13 18:48:00,
2013-11-13 11:54:00,77.0,44.9,30.06,SSE,158,9.0,9.0,32,0.00,,SKC,0.00,VWS V14.01,2013-11-13 18:54:00,
2013-11-13 12:00:00,77.0,44.9,30.06,SSE,158,12.0,13.0,32,0.00,,SKC,0.00,VWS V14.01,2013-11-13 19:00:00,
2013-11-13 12:06:00,76.0,44.8,30.06,SSW,202,11.0,12.0,33,0.00,,SKC,0.00,VWS V14.01,2013-11-13 19:06:00,
2013-11-13 12:12:00,77.0,44.9,30.05,South,180,8.0,11.0,32,0.00,,SKC,0.00,VWS V14.01,2013-11-13 19:12:00,
2013-11-13 12:17:00,76.0,44.8,30.05,SSE,158,11.0,11.0,33,0.00,,SKC,0.00,VWS V14.01,2013-11-13 19:17:00,
2013-11-13 12:22:00,76.0,44.8,30.05,SE,135,14.0,14.0,33,0.00,,SKC,0.00,VWS V14.01,2013-11-13 19:22:00,
2013-11-13 12:27:00,77.0,44.9,30.05,SSW,202,3.0,5.0,32,0.00,,SKC,0.00,VWS V14.01,2013-11-13 19:27:00,
2013-11-13 12:32:00,77.0,44.9,30.04,SSE,158,11.0,11.0,32,0.00,,SKC,0.00,VWS V14.01,2013-11-13 19:32:00,
2013-11-13 12:37:00,77.0,44.9,30.04,SSE,158,11.0,11.0,32,0.00,,SKC,0.00,VWS V14.01,2013-11-13 19:37:00,
2013-11-13 12:43:00,77.0,44.9,30.04,SSE,158,15.0,18.0,32,0.00,,SKC,0.00,VWS V14.01,2013-11-13 19:43:00,
2013-11-13 12:48:00,77.0,44.9,30.03,SSW,202,13.0,13.0,32,0.00,,SKC,0.00,VWS V14.01,2013-11-13 19:48:00,
2013-11-13 12:53:00,77.0,44.1,30.03,SSE,158,18.0,19.0,31,0.00,,SKC,0.00,VWS V14.01,2013-11-13 19:53:00,
2013-11-13 12:58:00,77.0,44.9,30.02,SSW,202,7.0,8.0,32,0.00,,SKC,0.00,VWS V14.01,2013-11-13 19:58:00,
2013-11-13 13:03:00,77.0,44.9,30.02,SSE,158,11.0,11.0,32,0.00,,SKC,0.00,VWS V14.01,2013-11-13 20:03:00,
2013-11-13 13:08:00,78.0,45.0,30.02,SSW,202,4.0,7.0,31,0.00,,SKC,0.00,VWS V14.01,2013-11-13 20:08:00,
2013-11-13 13:13:00,78.0,45.0,30.02,SE,135,5.0,5.0,31,0.00,,SKC,0.00,VWS V14.01,2013-11-13 20:13:00,
2013-11-13 13:18:00,78.0,45.0,30.02,SSW,202,10.0,10.0,31,0.00,,SKC,0.00,VWS V14.01,2013-11-13 20:18:00,
2013-11-13 13:23:00,78.0,45.0,30.01,SSE,158,9.0,11.0,31,0.00,,SKC,0.00,VWS V14.01,2013-11-13 20:23:00,
2013-11-13 13:29:00,77.0,44.1,30.01,SE,135,8.0,12.0,31,0.00,,SKC,0.00,VWS V14.01,2013-11-13 20:29:00,
2013-11-13 13:34:00,78.0,45.0,30.01,SSE,158,5.0,5.0,31,0.00,,SKC,0.00,VWS V14.01,2013-11-13 20:34:00,
2013-11-13 13:39:00,78.0,44.1,30.01,SE,135,9.0,13.0,30,0.00,,SKC,0.00,VWS V14.01,2013-11-13 20:39:00,
2013-11-13 13:44:00,79.0,45.0,30.01,SE,135,5.0,9.0,30,0.00,,SKC,0.00,VWS V14.01,2013-11-13 20:44:00,
2013-11-13 13:49:00,79.0,45.0,30.01,SSE,158,10.0,10.0,30,0.00,,SKC,0.00,VWS V14.01,2013-11-13 20:49:00,
2013-11-13 13:55:00,78.0,44.1,30.01,SSE,158,7.0,8.0,30,0.00,,SKC,0.00,VWS V14.01,2013-11-13 20:55:00,
2013-11-13 14:00:00,79.0,45.0,30.01,WSW,248,3.0,5.0,30,0.00,,SKC,0.00,VWS V14.01,2013-11-13 21:00:00,
2013-11-13 14:05:00,78.0,44.1,30.01,SSW,202,9.0,11.0,30,0.00,,SKC,0.00,VWS V14.01,2013-11-13 21:05:00,
2013-11-13 14:10:00,79.0,45.0,30.00,South,180,5.0,9.0,30,0.00,,SKC,0.00,VWS V14.01,2013-11-13 21:10:00,
2013-11-13 14:15:00,79.0,45.0,30.00,SSE,158,5.0,5.0,30,0.00,,SKC,0.00,VWS V14.01,2013-11-13 21:15:00,
2013-11-13 14:20:00,79.0,45.0,30.00,South,180,6.0,8.0,30,0.00,,SKC,0.00,VWS V14.01,2013-11-13 21:20:00,
2013-11-13 14:26:00,79.0,44.1,30.00,SSE,158,9.0,10.0,29,0.00,,SKC,0.00,VWS V14.01,2013-11-13 21:26:00,
2013-11-13 14:31:00,79.0,45.0,30.00,SSE,158,13.0,13.0,30,0.00,,SKC,0.00,VWS V14.01,2013-11-13 21:31:00,
2013-11-13 14:37:00,79.0,45.0,30.00,South,180,6.0,6.0,30,0.00,,SKC,0.00,VWS V14.01,2013-11-13 21:37:00,
2013-11-13 14:42:00,80.0,44.9,30.00,SW,225,3.0,3.0,29,0.00,,SKC,0.00,VWS V14.01,2013-11-13 21:42:00,
2013-11-13 14:48:00,79.0,45.0,29.99,SSE,158,6.0,8.0,30,0.00,,SKC,0.00,VWS V14.01,2013-11-13 21:48:00,
2013-11-13 14:53:00,79.0,45.0,29.99,SSE,158,4.0,8.0,30,0.00,,SKC,0.00,VWS V14.01,2013-11-13 21:53:00,
2013-11-13 14:59:00,79.0,45.0,29.99,SSE,158,8.0,10.0,30,0.00,,SKC,0.00,VWS V14.01,2013-11-13 21:59:00,
2013-11-13 15:04:00,79.0,45.0,29.99,ESE,112,7.0,7.0,30,0.00,,SKC,0.00,VWS V14.01,2013-11-13 22:04:00,
2013-11-13 15:12:00,79.0,45.0,29.99,SSE,158,6.0,11.0,30,0.00,,SKC,0.00,VWS V14.01,2013-11-13 22:12:00,
2013-11-13 15:17:00,79.0,45.0,29.99,SSW,202,6.0,8.0,30,0.00,,SKC,0.00,VWS V14.01,2013-11-13 22:17:00,
2013-11-13 15:23:00,80.0,44.9,29.99,SSW,202,6.0,8.0,29,0.00,,SKC,0.00,VWS V14.01,2013-11-13 22:23:00,
2013-11-13 15:28:00,79.0,44.1,29.99,SSE,158,10.0,10.0,29,0.00,,SKC,0.00,VWS V14.01,2013-11-13 22:28:00,
2013-11-13 15:33:00,79.0,45.0,29.99,SSW,202,5.0,5.0,30,0.00,,SKC,0.00,VWS V14.01,2013-11-13 22:33:00,
2013-11-13 15:39:00,79.0,45.0,29.99,SE,135,8.0,8.0,30,0.00,,SKC,0.00,VWS V14.01,2013-11-13 22:39:00,
2013-11-13 15:44:00,79.0,44.1,29.99,SSE,158,9.0,10.0,29,0.00,,SKC,0.00,VWS V14.01,2013-11-13 22:44:00,
2013-11-13 15:55:00,79.0,45.0,29.99,ESE,112,7.0,7.0,30,0.00,,SKC,0.00,VWS V14.01,2013-11-13 22:55:00,
2013-11-13 16:01:00,79.0,45.0,30.00,SW,225,5.0,7.0,30,0.00,,SKC,0.00,VWS V14.01,2013-11-13 23:01:00,
2013-11-13 16:06:00,79.0,45.0,30.00,SE,135,7.0,8.0,30,0.00,,SKC,0.00,VWS V14.01,2013-11-13 23:06:00,
2013-11-13 16:12:00,80.0,44.9,30.00,SW,225,4.0,5.0,29,0.00,,SKC,0.00,VWS V14.01,2013-11-13 23:12:00,
2013-11-13 16:17:00,80.0,44.9,30.00,SSW,202,4.0,5.0,29,0.00,,SKC,0.00,VWS V14.01,2013-11-13 23:17:00,
2013-11-13 16:23:00,79.0,44.1,30.00,SW,225,3.0,5.0,29,0.00,,SKC,0.00,VWS V14.01,2013-11-13 23:23:00,
2013-11-13 16:28:00,79.0,44.1,30.00,SW,225,2.0,3.0,29,0.00,,SKC,0.00,VWS V14.01,2013-11-13 23:28:00,
2013-11-13 16:33:00,79.0,45.0,30.00,SSW,202,1.0,2.0,30,0.00,,SKC,0.00,VWS V14.01,2013-11-13 23:33:00,
2013-11-13 16:39:00,78.0,44.1,30.00,SSW,202,2.0,3.0,30,0.00,,SKC,0.00,VWS V14.01,2013-11-13 23:39:00,
2013-11-13 16:44:00,78.0,44.1,30.00,SW,225,3.0,3.0,30,0.00,,SKC,0.00,VWS V14.01,2013-11-13 23:44:00,
2013-11-13 16:49:00,78.0,45.0,30.00,South,180,1.0,1.0,31,0.00,,SKC,0.00,VWS V14.01,2013-11-13 23:49:00,
2013-11-13 16:55:00,77.0,44.1,30.00,SSW,202,1.0,1.0,31,0.00,,SKC,0.00,VWS V14.01,2013-11-13 23:55:00,
2013-11-13 17:00:00,77.0,44.1,30.00,SSW,202,1.0,1.0,31,0.00,,SKC,0.00,VWS V14.01,2013-11-14 00:00:00,
2013-11-13 17:06:00,76.0,44.0,30.00,WSW,248,3.0,3.0,32,0.00,,SKC,0.00,VWS V14.01,2013-11-14 00:06:00,
2013-11-13 17:11:00,76.0,44.0,30.00,WSW,248,2.0,3.0,32,0.00,,SKC,0.00,VWS V14.01,2013-11-14 00:11:00,
2013-11-13 17:16:00,76.0,44.8,30.00,WSW,248,3.0,3.0,33,0.00,,SKC,0.00,VWS V14.01,2013-11-14 00:16:00,
2013-11-13 17:22:00,75.0,44.0,29.99,WSW,248,1.0,3.0,33,0.00,,SKC,0.00,VWS V14.01,2013-11-14 00:22:00,
2013-11-13 17:27:00,75.0,44.0,29.99,WSW,248,1.0,1.0,33,0.00,,SKC,0.00,VWS V14.01,2013-11-14 00:27:00,
2013-11-13 17:32:00,75.0,45.5,29.99,WSW,248,0.0,0.0,35,0.00,,SKC,0.00,VWS V14.01,2013-11-14 00:32:00,
2013-11-13 17:38:00,74.0,44.6,29.99,WSW,248,1.0,1.0,35,0.00,,SKC,0.00,VWS V14.01,2013-11-14 00:38:00,
2013-11-13 17:43:00,74.0,44.6,29.99,WSW,248,1.0,2.0,35,0.00,,SKC,0.00,VWS V14.01,2013-11-14 00:43:00,
2013-11-13 17:48:00,73.0,44.5,29.99,WSW,248,2.0,3.0,36,0.00,,SKC,0.00,VWS V14.01,2013-11-14 00:48:00,
2013-11-13 17:54:00,73.0,44.5,29.99,NNW,338,1.0,2.0,36,0.00,,SKC,0.00,VWS V14.01,2013-11-14 00:54:00,
2013-11-13 17:59:00,73.0,44.5,29.99,NW,315,3.0,3.0,36,0.00,,SKC,0.00,VWS V14.01,2013-11-14 00:59:00,
2013-11-13 18:04:00,72.0,43.6,29.99,NNW,338,5.0,5.0,36,0.00,,SKC,0.00,VWS V14.01,2013-11-14 01:04:00,
2013-11-13 18:10:00,72.0,43.6,29.99,NNE,22,3.0,3.0,36,0.00,,SKC,0.00,VWS V14.01,2013-11-14 01:10:00,
2013-11-13 18:15:00,72.0,43.6,29.99,North,0,1.0,3.0,36,0.00,,SKC,0.00,VWS V14.01,2013-11-14 01:15:00,
2013-11-13 18:20:00,72.0,43.6,29.99,NNW,338,2.0,2.0,36,0.00,,SKC,0.00,VWS V14.01,2013-11-14 01:20:00,
2013-11-13 18:26:00,71.0,42.7,29.99,North,0,3.0,3.0,36,0.00,,SKC,0.00,VWS V14.01,2013-11-14 01:26:00,
2013-11-13 18:31:00,71.0,43.4,29.99,North,0,2.0,3.0,37,0.00,,SKC,0.00,VWS V14.01,2013-11-14 01:31:00,
2013-11-13 18:36:00,71.0,43.4,29.99,NNE,22,2.0,3.0,37,0.00,,SKC,0.00,VWS V14.01,2013-11-14 01:36:00,
2013-11-13 18:42:00,71.0,43.4,29.99,NNE,22,3.0,3.0,37,0.00,,SKC,0.00,VWS V14.01,2013-11-14 01:42:00,
2013-11-13 18:47:00,70.0,42.6,29.99,NNE,22,3.0,4.0,37,0.00,,SKC,0.00,VWS V14.01,2013-11-14 01:47:00,
2013-11-13 18:52:00,70.0,43.2,29.99,North,0,4.0,5.0,38,0.00,,SKC,0.00,VWS V14.01,2013-11-14 01:52:00,
2013-11-13 18:58:00,70.0,43.2,29.99,NNW,338,3.0,3.0,38,0.00,,SKC,0.00,VWS V14.01,2013-11-14 01:58:00,
2013-11-13 19:03:00,70.0,43.2,29.99,NNE,22,3.0,3.0,38,0.00,,SKC,0.00,VWS V14.01,2013-11-14 02:03:00,
2013-11-13 19:08:00,70.0,43.2,29.99,NNW,338,3.0,5.0,38,0.00,,SKC,0.00,VWS V14.01,2013-11-14 02:08:00,
2013-11-13 19:14:00,69.0,42.4,29.99,NE,45,1.0,1.0,38,0.00,,SKC,0.00,VWS V14.01,2013-11-14 02:14:00,
2013-11-13 19:20:00,69.0,43.0,29.99,ENE,68,2.0,3.0,39,0.00,,SKC,0.00,VWS V14.01,2013-11-14 02:20:00,
2013-11-13 19:25:00,68.0,42.8,30.00,East,90,5.0,5.0,40,0.00,,SKC,0.00,VWS V14.01,2013-11-14 02:25:00,
2013-11-13 19:31:00,68.0,42.8,30.00,East,90,1.0,1.0,40,0.00,,SKC,0.00,VWS V14.01,2013-11-14 02:31:00,
2013-11-13 19:36:00,68.0,42.8,30.00,ENE,68,1.0,1.0,40,0.00,,SKC,0.00,VWS V14.01,2013-11-14 02:36:00,
2013-11-13 19:41:00,67.0,42.5,30.00,NE,45,1.0,2.0,41,0.00,,SKC,0.00,VWS V14.01,2013-11-14 02:41:00,
2013-11-13 19:47:00,67.0,42.5,30.00,NE,45,1.0,2.0,41,0.00,,SKC,0.00,VWS V14.01,2013-11-14 02:47:00,
2013-11-13 19:52:00,67.0,42.5,30.00,NE,45,2.0,2.0,41,0.00,,SKC,0.00,VWS V14.01,2013-11-14 02:52:00,
2013-11-13 19:57:00,67.0,43.2,30.00,NE,45,2.0,2.0,42,0.00,,SKC,0.00,VWS V14.01,2013-11-14 02:57:00,
2013-11-13 20:03:00,67.0,43.2,30.00,ENE,68,2.0,3.0,42,0.00,,SKC,0.00,VWS V14.01,2013-11-14 03:03:00,
2013-11-13 20:08:00,66.0,42.3,30.00,East,90,1.0,1.0,42,0.00,,SKC,0.00,VWS V14.01,2013-11-14 03:08:00,
2013-11-13 20:14:00,66.0,42.3,30.00,ENE,68,1.0,1.0,42,0.00,,SKC,0.00,VWS V14.01,2013-11-14 03:14:00,
2013-11-13 20:19:00,66.0,42.3,30.00,ESE,112,3.0,3.0,42,0.00,,SKC,0.00,VWS V14.01,2013-11-14 03:19:00,
2013-11-13 20:24:00,65.0,42.0,30.00,East,90,2.0,3.0,43,0.00,,SKC,0.00,VWS V14.01,2013-11-14 03:24:00,
2013-11-13 20:30:00,65.0,42.6,30.00,ENE,68,2.0,3.0,44,0.00,,SKC,0.00,VWS V14.01,2013-11-14 03:30:00,
2013-11-13 20:35:00,65.0,42.6,30.01,ENE,68,1.0,2.0,44,0.00,,SKC,0.00,VWS V14.01,2013-11-14 03:35:00,
2013-11-13 20:40:00,64.0,41.7,30.01,ENE,68,4.0,4.0,44,0.00,,SKC,0.00,VWS V14.01,2013-11-14 03:40:00,
2013-11-13 20:45:00,64.0,42.3,30.01,ENE,68,1.0,2.0,45,0.00,,SKC,0.00,VWS V14.01,2013-11-14 03:45:00,
2013-11-13 20:50:00,64.0,42.3,30.01,NE,45,1.0,2.0,45,0.00,,SKC,0.00,VWS V14.01,2013-11-14 03:50:00,
2013-11-13 20:56:00,64.0,42.8,30.01,ENE,68,1.0,2.0,46,0.00,,SKC,0.00,VWS V14.01,2013-11-14 03:56:00,
2013-11-13 21:01:00,64.0,42.8,30.01,ENE,68,2.0,2.0,46,0.00,,SKC,0.00,VWS V14.01,2013-11-14 04:01:00,
2013-11-13 21:06:00,64.0,42.8,30.01,East,90,4.0,4.0,46,0.00,,SKC,0.00,VWS V14.01,2013-11-14 04:06:00,
2013-11-13 21:12:00,63.0,41.9,30.01,East,90,3.0,3.0,46,0.00,,SKC,0.00,VWS V14.01,2013-11-14 04:12:00,
2013-11-13 21:17:00,63.0,41.9,30.01,ENE,68,2.0,2.0,46,0.00,,SKC,0.00,VWS V14.01,2013-11-14 04:17:00,
2013-11-13 21:22:00,63.0,41.9,30.01,ENE,68,2.0,2.0,46,0.00,,SKC,0.00,VWS V14.01,2013-11-14 04:22:00,
2013-11-13 21:28:00,63.0,42.5,30.00,NE,45,2.0,2.0,47,0.00,,SKC,0.00,VWS V14.01,2013-11-14 04:28:00,
2013-11-13 21:33:00,63.0,41.9,30.01,ENE,68,2.0,3.0,46,0.00,,SKC,0.00,VWS V14.01,2013-11-14 04:33:00,
2013-11-13 21:38:00,63.0,41.9,30.01,ENE,68,2.0,3.0,46,0.00,,SKC,0.00,VWS V14.01,2013-11-14 04:38:00,
2013-11-13 21:43:00,63.0,41.9,30.00,ENE,68,1.0,1.0,46,0.00,,SKC,0.00,VWS V14.01,2013-11-14 04:43:00,
2013-11-13 21:48:00,63.0,41.9,30.00,East,90,3.0,3.0,46,0.00,,SKC,0.00,VWS V14.01,2013-11-14 04:48:00,
2013-11-13 21:53:00,63.0,41.9,30.00,East,90,3.0,3.0,46,0.00,,SKC,0.00,VWS V14.01,2013-11-14 04:53:00,
2013-11-13 21:58:00,63.0,42.5,30.00,ENE,68,2.0,3.0,47,0.00,,SKC,0.00,VWS V14.01,2013-11-14 04:58:00,
2013-11-13 22:01:00,63.0,42.5,30.00,East,90,2.0,3.0,47,0.00,,SKC,0.00,VWS V14.01,2013-11-14 05:01:00,
2013-11-13 22:02:00,63.0,42.5,30.00,East,90,5.0,6.0,47,0.00,,SKC,0.00,VWS V14.01,2013-11-14 05:02:00,
2013-11-13 22:03:00,63.0,42.5,30.00,East,90,2.0,3.0,47,0.00,,SKC,0.00,VWS V14.01,2013-11-14 05:03:00,
2013-11-13 22:07:00,63.0,42.5,30.00,ENE,68,1.0,2.0,47,0.00,,SKC,0.00,VWS V14.01,2013-11-14 05:07:00,
2013-11-13 22:12:00,62.0,41.6,30.00,East,90,3.0,3.0,47,0.00,,SKC,0.00,VWS V14.01,2013-11-14 05:12:00,
2013-11-13 22:17:00,62.0,41.6,30.01,East,90,3.0,3.0,47,0.00,,SKC,0.00,VWS V14.01,2013-11-14 05:17:00,
2013-11-13 22:22:00,61.0,41.7,30.01,ENE,68,3.0,3.0,49,0.00,,SKC,0.00,VWS V14.01,2013-11-14 05:22:00,
2013-11-13 22:23:00,61.0,41.7,30.00,ENE,68,3.0,3.0,49,0.00,,SKC,0.00,VWS V14.01,2013-11-14 05:23:00,
2013-11-13 22:28:00,61.0,41.7,30.00,ENE,68,2.0,2.0,49,0.00,,SKC,0.00,VWS V14.01,2013-11-14 05:28:00,
2013-11-13 22:33:00,61.0,41.7,30.00,NE,45,3.0,4.0,49,0.00,,SKC,0.00,VWS V14.01,2013-11-14 05:33:00,
2013-11-13 22:38:00,61.0,41.7,30.00,ENE,68,3.0,3.0,49,0.00,,SKC,0.00,VWS V14.01,2013-11-14 05:38:00,
2013-11-13 22:43:00,61.0,41.7,30.01,NE,45,3.0,3.0,49,0.00,,SKC,0.00,VWS V14.01,2013-11-14 05:43:00,
2013-11-13 22:48:00,61.0,42.2,30.00,ENE,68,3.0,3.0,50,0.00,,SKC,0.00,VWS V14.01,2013-11-14 05:48:00,
2013-11-13 22:53:00,61.0,42.2,30.00,ESE,112,3.0,5.0,50,0.00,,SKC,0.00,VWS V14.01,2013-11-14 05:53:00,
2013-11-13 22:58:00,60.0,41.3,30.00,ENE,68,3.0,3.0,50,0.00,,SKC,0.00,VWS V14.01,2013-11-14 05:58:00,
2013-11-13 23:03:00,60.0,41.3,30.00,ENE,68,4.0,4.0,50,0.00,,SKC,0.00,VWS V14.01,2013-11-14 06:03:00,
2013-11-13 23:08:00,60.0,41.3,30.00,ENE,68,2.0,3.0,50,0.00,,SKC,0.00,VWS V14.01,2013-11-14 06:08:00,
2013-11-13 23:13:00,61.0,42.2,30.00,NE,45,3.0,4.0,50,0.00,,SKC,0.00,VWS V14.01,2013-11-14 06:13:00,
2013-11-13 23:18:00,61.0,42.2,30.00,NE,45,2.0,3.0,50,0.00,,SKC,0.00,VWS V14.01,2013-11-14 06:18:00,
2013-11-13 23:23:00,61.0,42.2,30.00,East,90,3.0,3.0,50,0.00,,SKC,0.00,VWS V14.01,2013-11-14 06:23:00,
2013-11-13 23:28:00,62.0,42.6,30.00,NE,45,5.0,5.0,49,0.00,,SKC,0.00,VWS V14.01,2013-11-14 06:28:00,
2013-11-13 23:33:00,63.0,42.5,30.01,ENE,68,1.0,2.0,47,0.00,,SKC,0.00,VWS V14.01,2013-11-14 06:33:00,
2013-11-13 23:38:00,62.0,41.6,30.01,ENE,68,2.0,4.0,47,0.00,,SKC,0.00,VWS V14.01,2013-11-14 06:38:00,
2013-11-13 23:43:00,61.0,41.7,30.00,ENE,68,2.0,3.0,49,0.00,,SKC,0.00,VWS V14.01,2013-11-14 06:43:00,
2013-11-13 23:48:00,60.0,41.8,30.00,East,90,2.0,3.0,51,0.00,,SKC,0.00,VWS V14.01,2013-11-14 06:48:00,
2013-11-13 23:53:00,59.0,41.4,30.00,ENE,68,1.0,2.0,52,0.00,,SKC,0.00,VWS V14.01,2013-11-14 06:53:00,
2013-11-13 23:58:00,59.0,41.4,30.00,East,90,3.0,3.0,52,0.00,,SKC,0.00,VWS V14.01,2013-11-14 06:58:00,